| time (UTC) | temp F | wind direction | speed knots | gust knots | rain 1hr in | rain 24hr in | rain mn in | humidity % | barometer mb |
| 20260503223521 | 81 | 346 | 2.6 | 3.5 | 0.00 | 0.00 | 0.00 | 38 | 1010.9 |
| 20260503223016 | 82 | 60 | 1.7 | 2.6 | 0.00 | 0.00 | 0.00 | 37 | 1010.8 |
| 20260503222514 | 82 | 38 | 1.7 | 2.6 | 0.00 | 0.00 | 0.00 | 39 | 1010.9 |
| 20260503222012 | 82 | 323 | 3.5 | 5.2 | 0.00 | 0.00 | 0.00 | 37 | 1010.8 |
| 20260503221510 | 80 | 96 | 1.7 | 1.7 | 0.00 | 0.00 | 0.00 | 40 | 1011.0 |
| 20260503221007 | 80 | 273 | 2.6 | 3.5 | 0.00 | 0.00 | 0.00 | 38 | 1011.0 |
| 20260503220503 | 80 | 291 | 4.3 | 5.2 | 0.00 | 0.00 | 0.00 | 38 | 1011.2 |
| 20260503220000 | 80 | 178 | 0.0 | 0.9 | 0.00 | 0.00 | 0.00 | 38 | 1011.2 |
| 20260503215457 | 80 | 303 | 2.6 | 2.6 | 0.00 | 0.00 | 0.00 | 39 | 1011.0 |
| 20260503214954 | 80 | 7 | 2.6 | 5.2 | 0.00 | 0.00 | 0.00 | 39 | 1011.2 |
| 20260503214452 | 80 | 169 | 1.7 | 2.6 | 0.00 | 0.00 | 0.00 | 39 | 1011.2 |
| 20260503213949 | 80 | 16 | 1.7 | 2.6 | 0.00 | 0.00 | 0.00 | 40 | 1011.3 |
| 20260503213448 | 80 | 333 | 3.5 | 3.5 | 0.00 | 0.00 | 0.00 | 39 | 1011.4 |
| 20260503212943 | 80 | 4 | 1.7 | 1.7 | 0.00 | 0.00 | 0.00 | 39 | 1011.5 |
| 20260503212441 | 80 | 104 | 1.7 | 1.7 | 0.00 | 0.00 | 0.00 | 39 | 1011.5 |
| 20260503211938 | 79 | 140 | 1.7 | 2.6 | 0.00 | 0.00 | 0.00 | 40 | 1011.5 |
| 20260503211435 | 79 | 337 | 3.5 | 3.5 | 0.00 | 0.00 | 0.00 | 39 | 1011.7 |
| 20260503210930 | 79 | 315 | 6.1 | 7.8 | 0.00 | 0.00 | 0.00 | 39 | 1011.8 |
| 20260503210427 | 79 | 169 | 3.5 | 5.2 | 0.00 | 0.00 | 0.00 | 42 | 1011.5 |
| 20260503205922 | 78 | 94 | 1.7 | 2.6 | 0.00 | 0.00 | 0.00 | 44 | 1011.9 |
| 20260503205420 | 78 | 102 | 1.7 | 1.7 | 0.00 | 0.00 | 0.00 | 44 | 1011.7 |
| 20260503204916 | 78 | 33 | 2.6 | 3.5 | 0.00 | 0.00 | 0.00 | 44 | 1012.0 |
| 20260503204413 | 78 | 152 | 2.6 | 3.5 | 0.00 | 0.00 | 0.00 | 44 | 1011.8 |
| 20260503203910 | 77 | 156 | 3.5 | 3.5 | 0.00 | 0.00 | 0.00 | 44 | 1012.0 |
| 20260503203408 | 78 | 304 | 5.2 | 6.1 | 0.00 | 0.00 | 0.00 | 43 | 1012.3 |
| 20260503202904 | 78 | 331 | 3.5 | 5.2 | 0.00 | 0.00 | 0.00 | 42 | 1012.3 |
| 20260503202403 | 78 | 289 | 1.7 | 3.5 | 0.00 | 0.00 | 0.00 | 44 | 1012.2 |
| 20260503201901 | 77 | 346 | 4.3 | 7.0 | 0.00 | 0.00 | 0.00 | 43 | 1012.4 |
| 20260503201357 | 77 | 272 | 0.9 | 1.7 | 0.00 | 0.00 | 0.00 | 44 | 1012.4 |
| 20260503200855 | 77 | 41 | 4.3 | 6.1 | 0.00 | 0.00 | 0.00 | 43 | 1012.5 |
| 20260503200350 | 77 | 330 | 5.2 | 6.1 | 0.00 | 0.00 | 0.00 | 45 | 1012.4 |
| 20260503195848 | 77 | 82 | 0.9 | 1.7 | 0.00 | 0.00 | 0.00 | 46 | 1012.5 |
| 20260503195344 | 76 | 65 | 0.0 | 0.9 | 0.00 | 0.00 | 0.00 | 48 | 1012.6 |
| 20260503194842 | 76 | 320 | 2.6 | 2.6 | 0.00 | 0.00 | 0.00 | 47 | 1012.8 |
| 20260503194338 | 75 | 66 | 5.2 | 7.8 | 0.00 | 0.00 | 0.00 | 48 | 1012.8 |
| 20260503193834 | 76 | 353 | 3.5 | 6.1 | 0.00 | 0.00 | 0.00 | 48 | 1012.7 |
| 20260503193330 | 75 | 140 | 1.7 | 1.7 | 0.00 | 0.00 | 0.00 | 48 | 1012.8 |
| 20260503192826 | 76 | 77 | 0.9 | 0.9 | 0.00 | 0.00 | 0.00 | 49 | 1012.8 |
| 20260503192322 | 75 | 210 | 1.7 | 2.6 | 0.00 | 0.00 | 0.00 | 51 | 1013.0 |
| 20260503191818 | 76 | 98 | 0.0 | 0.9 | 0.00 | 0.00 | 0.00 | 50 | 1013.0 |
| 20260503191315 | 75 | 21 | 1.7 | 1.7 | 0.00 | 0.00 | 0.00 | 50 | 1013.1 |
| 20260503190812 | 76 | 70 | 1.7 | 1.7 | 0.00 | 0.00 | 0.00 | 48 | 1013.1 |
| 20260503190309 | 75 | 104 | 0.9 | 1.7 | 0.00 | 0.00 | 0.00 | 50 | 1012.9 |
| 20260503185806 | 75 | 347 | 3.5 | 5.2 | 0.00 | 0.00 | 0.00 | 50 | 1013.1 |
| 20260503185304 | 75 | 14 | 3.5 | 5.2 | 0.00 | 0.00 | 0.00 | 48 | 1013.1 |
| 20260503184801 | 74 | 157 | 5.2 | 7.0 | 0.00 | 0.00 | 0.00 | 49 | 1013.1 |
| 20260503184258 | 75 | 267 | 4.3 | 6.1 | 0.00 | 0.00 | 0.00 | 48 | 1013.2 |
| 20260503183753 | 75 | 27 | 3.5 | 5.2 | 0.00 | 0.00 | 0.00 | 49 | 1013.1 |
| 20260503183251 | 75 | 266 | 3.5 | 5.2 | 0.00 | 0.00 | 0.00 | 49 | 1013.4 |
| 20260503182749 | 75 | 189 | 1.7 | 2.6 | 0.00 | 0.00 | 0.00 | 48 | 1013.2 |
| 20260503182248 | 74 | 83 | 1.7 | 2.6 | 0.00 | 0.00 | 0.00 | 51 | 1013.4 |
| 20260503181744 | 74 | 17 | 2.6 | 3.5 | 0.00 | 0.00 | 0.00 | 50 | 1013.4 |
| 20260503181241 | 74 | 22 | 3.5 | 5.2 | 0.00 | 0.00 | 0.00 | 49 | 1013.5 |
| 20260503180737 | 74 | 99 | 0.0 | 1.7 | 0.00 | 0.00 | 0.00 | 51 | 1013.6 |
| 20260503180236 | 73 | 108 | 0.9 | 0.9 | 0.00 | 0.00 | 0.00 | 52 | 1013.7 |
| 20260503175732 | 73 | 131 | 0.9 | 1.7 | 0.00 | 0.00 | 0.00 | 51 | 1013.4 |
| 20260503175230 | 72 | 77 | 0.9 | 0.9 | 0.00 | 0.00 | 0.00 | 52 | 1013.6 |
| 20260503174726 | 71 | 345 | 1.7 | 1.7 | 0.00 | 0.00 | 0.00 | 54 | 1013.7 |
| 20260503174224 | 71 | 5 | 3.5 | 3.5 | 0.00 | 0.00 | 0.00 | 54 | 1013.6 |
| 20260503173719 | 71 | 307 | 3.5 | 3.5 | 0.00 | 0.00 | 0.00 | 53 | 1013.6 |
| 20260503173215 | 71 | 326 | 2.6 | 3.5 | 0.00 | 0.00 | 0.00 | 54 | 1013.6 |
| 20260503172712 | 70 | 80 | 0.9 | 1.7 | 0.00 | 0.00 | 0.00 | 54 | 1013.8 |
| 20260503172209 | 70 | 57 | 0.9 | 1.7 | 0.00 | 0.00 | 0.00 | 55 | 1013.7 |
| 20260503171705 | 70 | 34 | 1.7 | 3.5 | 0.00 | 0.00 | 0.00 | 54 | 1013.6 |
| 20260503171203 | 70 | 57 | 0.9 | 0.9 | 0.00 | 0.00 | 0.00 | 55 | 1013.8 |
| 20260503170700 | 70 | 48 | 0.9 | 1.7 | 0.00 | 0.00 | 0.00 | 55 | 1013.9 |
| 20260503170157 | 69 | 86 | 0.0 | 0.0 | 0.00 | 0.00 | 0.00 | 56 | 1013.8 |
| 20260503160124 | 67 | 90 | 0.9 | 0.9 | 0.00 | 0.00 | 0.00 | 56 | 1013.8 |
| 20260503150553 | 65 | 68 | 0.0 | 0.9 | 0.00 | 0.00 | 0.00 | 61 | 1014.1 |
| 20260503130943 | 50 | 52 | 0.0 | 0.0 | 0.00 | 0.00 | 0.00 | 89 | 1013.6 |
| 20260503130441 | 50 | 69 | 0.0 | 0.0 | 0.00 | 0.00 | 0.00 | 89 | 1013.7 |
| 20260503110343 | 52 | 111 | 0.0 | 0.0 | 0.00 | 0.00 | 0.00 | 82 | 1013.9 |
| 20260503090234 | 57 | 59 | 0.0 | 0.0 | 0.00 | 0.00 | 0.00 | 70 | 1013.9 |
| 20260503081202 | 62 | 77 | 0.0 | 0.0 | 0.00 | 0.00 | 0.00 | 58 | 1014.1 |
| 20260503080657 | 64 | 59 | 0.0 | 0.0 | 0.00 | 0.00 | 0.00 | 53 | 1014.1 |
| 20260503080155 | 65 | 78 | 0.0 | 0.0 | 0.00 | 0.00 | 0.00 | 51 | 1014.3 |
| 20260503072631 | 66 | 54 | 0.0 | 0.9 | 0.00 | 0.00 | 0.00 | 47 | 1014.1 |
| 20260503072128 | 66 | 50 | 1.7 | 2.6 | 0.00 | 0.00 | 0.00 | 48 | 1013.9 |
| 20260503071625 | 67 | 68 | 1.7 | 2.6 | 0.00 | 0.00 | 0.00 | 47 | 1014.1 |
| 20260503071122 | 66 | 30 | 3.5 | 5.2 | 0.00 | 0.00 | 0.00 | 46 | 1014.1 |
| 20260503070619 | 66 | 52 | 0.9 | 0.9 | 0.00 | 0.00 | 0.00 | 47 | 1014.2 |
| 20260503070117 | 66 | 33 | 0.0 | 0.0 | 0.00 | 0.00 | 0.00 | 47 | 1014.2 |
| 20260503055037 | 65 | 51 | 0.0 | 0.9 | 0.00 | 0.00 | 0.00 | 52 | 1013.9 |
| 20260503054533 | 65 | 53 | 0.0 | 0.0 | 0.00 | 0.00 | 0.00 | 53 | 1014.0 |
| 20260503054031 | 65 | 60 | 1.7 | 1.7 | 0.00 | 0.00 | 0.00 | 53 | 1013.8 |
| 20260503053529 | 65 | 57 | 0.0 | 0.0 | 0.00 | 0.00 | 0.00 | 55 | 1013.9 |
| 20260503053026 | 65 | 38 | 0.0 | 0.0 | 0.00 | 0.00 | 0.00 | 54 | 1014.0 |
| 20260503052523 | 65 | 23 | 2.6 | 2.6 | 0.00 | 0.00 | 0.00 | 54 | 1013.9 |
| 20260503052019 | 66 | 61 | 0.0 | 0.0 | 0.00 | 0.00 | 0.00 | 54 | 1013.9 |
| 20260503051514 | 66 | 31 | 1.7 | 1.7 | 0.00 | 0.00 | 0.00 | 53 | 1014.1 |
| 20260503051013 | 66 | 37 | 1.7 | 1.7 | 0.00 | 0.00 | 0.00 | 54 | 1013.8 |
| 20260503050508 | 66 | 67 | 0.0 | 0.0 | 0.00 | 0.00 | 0.00 | 55 | 1014.0 |
| 20260503050006 | 66 | 46 | 0.9 | 1.7 | 0.00 | 0.00 | 0.00 | 55 | 1013.8 |
| 20260503045503 | 66 | 52 | 0.0 | 0.9 | 0.00 | 0.00 | 0.00 | 55 | 1013.8 |
| 20260503045000 | 66 | 81 | 0.0 | 0.0 | 0.00 | 0.00 | 0.00 | 55 | 1013.8 |
| 20260503044456 | 66 | 49 | 0.9 | 0.9 | 0.00 | 0.00 | 0.00 | 55 | 1013.6 |
| 20260503043954 | 66 | 42 | 0.0 | 0.0 | 0.00 | 0.00 | 0.00 | 55 | 1013.7 |
| 20260503043450 | 66 | 59 | 0.0 | 0.0 | 0.00 | 0.00 | 0.00 | 55 | 1013.7 |
| 20260503042946 | 66 | 70 | 0.0 | 0.0 | 0.00 | 0.00 | 0.00 | 55 | 1013.6 |
| 20260503042443 | 66 | 72 | 0.0 | 0.0 | 0.00 | 0.00 | 0.00 | 55 | 1013.7 |
| 20260503041940 | 66 | 67 | 0.0 | 0.0 | 0.00 | 0.00 | 0.00 | 56 | 1013.6 |
| 20260503041437 | 66 | 89 | 0.0 | 0.9 | 0.00 | 0.00 | 0.00 | 57 | 1013.6 |
| 20260503040934 | 66 | 57 | 0.9 | 0.9 | 0.00 | 0.00 | 0.00 | 59 | 1013.4 |
| 20260503040431 | 65 | 67 | 0.0 | 0.9 | 0.00 | 0.00 | 0.00 | 59 | 1013.3 |
| 20260503035929 | 66 | 72 | 0.0 | 0.0 | 0.00 | 0.00 | 0.00 | 59 | 1013.3 |
| 20260503035425 | 65 | 54 | 0.0 | 0.9 | 0.00 | 0.00 | 0.00 | 59 | 1013.3 |
| 20260503034923 | 66 | 69 | 0.0 | 0.0 | 0.00 | 0.00 | 0.00 | 58 | 1013.2 |
| 20260503034420 | 66 | 61 | 0.0 | 0.0 | 0.00 | 0.00 | 0.00 | 58 | 1013.1 |
| 20260503033917 | 66 | 10 | 1.7 | 2.6 | 0.00 | 0.00 | 0.00 | 57 | 1012.9 |
| 20260503033415 | 67 | 65 | 0.0 | 0.0 | 0.00 | 0.00 | 0.00 | 56 | 1012.8 |
| 20260503032913 | 67 | 321 | 0.9 | 1.7 | 0.00 | 0.00 | 0.00 | 56 | 1012.8 |
| 20260503032411 | 67 | 41 | 0.0 | 0.9 | 0.00 | 0.00 | 0.00 | 55 | 1012.7 |
| 20260503031908 | 67 | 68 | 0.9 | 1.7 | 0.00 | 0.00 | 0.00 | 55 | 1012.9 |
| 20260503031406 | 67 | 30 | 0.9 | 0.9 | 0.00 | 0.00 | 0.00 | 54 | 1012.8 |
| 20260503030902 | 68 | 122 | 0.9 | 0.9 | 0.00 | 0.00 | 0.00 | 53 | 1012.8 |
| 20260503030359 | 68 | 20 | 1.7 | 2.6 | 0.00 | 0.00 | 0.00 | 53 | 1012.7 |
| 20260503025855 | 68 | 12 | 2.6 | 2.6 | 0.00 | 0.00 | 0.00 | 52 | 1012.5 |
| 20260503025353 | 68 | 31 | 0.9 | 1.7 | 0.00 | 0.00 | 0.00 | 52 | 1012.7 |
| 20260503024850 | 68 | 62 | 0.0 | 0.0 | 0.00 | 0.00 | 0.00 | 51 | 1012.8 |
| 20260503024346 | 68 | 198 | 1.7 | 2.6 | 0.00 | 0.00 | 0.00 | 51 | 1012.7 |
| 20260503023843 | 69 | 77 | 0.9 | 0.9 | 0.00 | 0.00 | 0.00 | 51 | 1012.5 |
| 20260503023340 | 69 | 267 | 6.1 | 7.8 | 0.00 | 0.00 | 0.00 | 50 | 1012.6 |
| 20260503022837 | 69 | 89 | 0.0 | 0.9 | 0.00 | 0.00 | 0.00 | 50 | 1012.6 |
| 20260503022332 | 69 | 299 | 4.3 | 7.0 | 0.00 | 0.00 | 0.00 | 49 | 1012.5 |
| 20260503021828 | 70 | 210 | 5.2 | 7.8 | 0.00 | 0.00 | 0.00 | 49 | 1012.6 |
| 20260503021325 | 70 | 316 | 5.2 | 7.0 | 0.00 | 0.00 | 0.00 | 48 | 1012.7 |
| 20260503020822 | 70 | 343 | 2.6 | 2.6 | 0.00 | 0.00 | 0.00 | 48 | 1012.6 |
| 20260503020320 | 70 | 310 | 1.7 | 1.7 | 0.00 | 0.00 | 0.00 | 48 | 1012.6 |
| 20260503015816 | 71 | 20 | 0.9 | 0.9 | 0.00 | 0.00 | 0.00 | 48 | 1012.4 |
| 20260503015313 | 71 | 81 | 0.0 | 0.0 | 0.00 | 0.00 | 0.00 | 48 | 1012.6 |
| 20260503014809 | 71 | 253 | 3.5 | 5.2 | 0.00 | 0.00 | 0.00 | 48 | 1012.7 |
| 20260503014307 | 71 | 56 | 0.9 | 2.6 | 0.00 | 0.00 | 0.00 | 48 | 1012.4 |
| 20260503013804 | 72 | 341 | 4.3 | 5.2 | 0.00 | 0.00 | 0.00 | 46 | 1012.6 |
| 20260503013301 | 72 | 101 | 1.7 | 3.5 | 0.00 | 0.00 | 0.00 | 47 | 1012.6 |
| 20260503012758 | 73 | 103 | 3.5 | 3.5 | 0.00 | 0.00 | 0.00 | 46 | 1012.5 |
| 20260503012256 | 72 | 0 | 3.5 | 7.0 | 0.00 | 0.00 | 0.00 | 46 | 1012.6 |
| 20260503011752 | 72 | 291 | 1.7 | 1.7 | 0.00 | 0.00 | 0.00 | 47 | 1012.5 |
| 20260503011249 | 74 | 190 | 4.3 | 7.0 | 0.00 | 0.00 | 0.00 | 45 | 1012.7 |
| 20260503010746 | 74 | 313 | 0.9 | 1.7 | 0.00 | 0.00 | 0.00 | 46 | 1012.6 |
| 20260503010243 | 73 | 306 | 0.9 | 1.7 | 0.00 | 0.00 | 0.00 | 47 | 1012.6 |
| 20260503005740 | 73 | 165 | 0.9 | 1.7 | 0.00 | 0.00 | 0.00 | 47 | 1012.6 |
| 20260503005237 | 73 | 329 | 2.6 | 5.2 | 0.00 | 0.00 | 0.00 | 46 | 1012.8 |
| 20260503004733 | 74 | 72 | 7.0 | 7.8 | 0.00 | 0.00 | 0.00 | 45 | 1012.7 |
| 20260503004232 | 75 | 222 | 3.5 | 5.2 | 0.00 | 0.00 | 0.00 | 45 | 1012.8 |
| 20260503003728 | 74 | 12 | 2.6 | 3.5 | 0.00 | 0.00 | 0.00 | 45 | 1012.7 |
| 20260503003225 | 74 | 292 | 2.6 | 5.2 | 0.00 | 0.00 | 0.00 | 47 | 1012.7 |
| 20260503002722 | 74 | 185 | 3.5 | 5.2 | 0.00 | 0.00 | 0.00 | 46 | 1013.0 |
| 20260503002219 | 74 | 255 | 2.6 | 3.5 | 0.00 | 0.00 | 0.00 | 46 | 1013.0 |
| 20260503001715 | 74 | 296 | 4.3 | 7.0 | 0.00 | 0.00 | 0.00 | 45 | 1012.8 |
| 20260503001211 | 74 | 30 | 2.6 | 6.1 | 0.00 | 0.00 | 0.00 | 45 | 1013.0 |
| 20260503000710 | 74 | 329 | 7.0 | 8.7 | 0.00 | 0.00 | 0.00 | 44 | 1012.9 |
| 20260503000207 | 74 | 287 | 3.5 | 5.2 | 0.00 | 0.00 | 0.00 | 45 | 1013.0 |
| 20260502235704 | 74 | 12 | 4.3 | 5.2 | 0.00 | 0.00 | 0.00 | 45 | 1013.1 |
| 20260502235201 | 74 | 204 | 2.6 | 5.2 | 0.00 | 0.00 | 0.00 | 45 | 1013.0 |
| 20260502234657 | 74 | 351 | 3.5 | 3.5 | 0.00 | 0.00 | 0.00 | 45 | 1013.1 |
| 20260502234155 | 74 | 198 | 0.9 | 1.7 | 0.00 | 0.00 | 0.00 | 44 | 1013.3 |
| 20260502233650 | 74 | 42 | 1.7 | 1.7 | 0.00 | 0.00 | 0.00 | 45 | 1013.3 |
| 20260502233147 | 73 | 67 | 1.7 | 1.7 | 0.00 | 0.00 | 0.00 | 45 | 1013.2 |
| 20260502232643 | 74 | 209 | 5.2 | 7.0 | 0.00 | 0.00 | 0.00 | 43 | 1013.6 |
| 20260502232141 | 74 | 324 | 1.7 | 2.6 | 0.00 | 0.00 | 0.00 | 47 | 1013.4 |
| 20260502231637 | 74 | 168 | 0.9 | 1.7 | 0.00 | 0.00 | 0.00 | 47 | 1013.5 |
| 20260502231135 | 74 | 349 | 2.6 | 3.5 | 0.00 | 0.00 | 0.00 | 47 | 1013.8 |
| 20260502230633 | 73 | 125 | 0.9 | 0.9 | 0.00 | 0.00 | 0.00 | 50 | 1013.6 |
| 20260502230132 | 74 | 167 | 0.9 | 0.9 | 0.00 | 0.00 | 0.00 | 48 | 1013.8 |
| 20260502225627 | 73 | 251 | 3.5 | 8.7 | 0.00 | 0.00 | 0.00 | 50 | 1013.8 |
| 20260502225125 | 73 | 312 | 2.6 | 6.1 | 0.00 | 0.00 | 0.00 | 51 | 1013.9 |
| 20260502224620 | 73 | 187 | 3.5 | 5.2 | 0.00 | 0.00 | 0.00 | 51 | 1014.1 |
| 20260502224117 | 73 | 293 | 4.3 | 6.1 | 0.00 | 0.00 | 0.00 | 50 | 1014.0 |